Weather in Chernomorskoe

Russia / Republic of Crimea     45°30′33″N   32°42′12″E
temp.,
°C
wind,
m/s
gust,
m/s
humid.,
%
clouds,
%
prec.,
mm/h
press.,
hPa
HPBL,
m
28 february, sun
sun2800:00+5n81075100 0.0 1020982
03:00+5nnw81086100 0.1 1021614
06:00+5nnw8985100 0.2 1021796
09:00+4nnw8108698 0.4 1022758
12:00+4nnw7882100 0.3 1023795
15:00+4nnw8981100 0.5 1023831
18:00+4nnw8983100 0.2 1024692
21:00+4nw677483 0.2 1024638
1 march, mon
mon100:00+4nw677196 0.1 1025750
03:00+3nw457588 0.1 1024531
06:00+4wnw457496 0.1 1024513
09:00+2n459698 0.3 1025332
12:00+3ne3487100 0.1 1026359
15:00+4n447786 0.2 1026395
18:00+4n457334 0.0 1027432
21:00+4nne467823 0.0 1029438
2 march, tue
tue200:00+3ne578169 0.1 1031459
03:00+3nne567979 0.1 1031507
06:00+2nne457626 0.0 1031480
09:00+3n446632 0.0 1031857
12:00+4nw446185 0.0 10311064
15:00+4wnw566485 0.0 1029949
18:00+4w687078 0.0 1027743
21:00+4wsw8118039 0.0 1026609
3 march, wed
wed300:00+6wsw1014770 0.0 1024467
03:00+6wnw1014800 0.0 1022456
06:00+5nnw912813 0.0 1023791
09:00+4n10127050 0.1 10251210
12:00+6nnw8116267 0.0 10261184
15:00+6nnw686233 0.0 10271068
18:00+6nw68710 0.0 1027323
21:00+5nw57755 0.0 1028170
4 march, thu
thu400:00+5nw347626 0.0 102896
03:00+5wnw337913 0.0 102885
06:00+5wsw33790 0.0 102792
09:00+6wsw46790 0.0 1026546
12:00+7sw67700 0.0 1024785
15:00+7sw79660 0.0 1022722
18:00+6ssw810730 0.0 1020653
21:00+6ssw812790 0.0 1020570